Location: Boiro
(42.6475°N, 8.8834°W)
Time: 00:39:38
(UTC+01:00)

Tiros 1 despin weight - Pass Details

Date: 03 December 2021
Orbit: 592 x 641 km, 48.2° (Epoch: 23 January)

Event Time Altitude Azimuth Distance (km) Brightness Sun altitude
Rises 17:45:16 0° 283° (WNW) 2,826 ? 1.9°
Reaches altitude 10° 17:47:40 10° 291° (WNW) 1,922 ? 1.5°
Maximum altitude 17:51:49 39° 2° (N) 888 ? 0.8°
Drops below altitude 10° 17:55:58 10° 72° (ENE) 1,926 ? 0.2°
Sets 17:58:23 0° 80° (E) 2,832 ? -0.2°
